[[{"header":{"parameterUnit":"m.s-1","parameterCategory":1,"la1":30.2991,"la2":30.254,"lo1":-89.0895,"lo2":-89.0444,"dy":0.0017,"dx":0.0017,"nx":28,"ny":28,"refTime":"2025-06-18T09:00:00:Z","depth":0,"parameterNumber":2,"parameterNumberName":"U-component_of_WINDS"},"data":[0,0,0,0,0,0,0,0,0,0,0,0,0,0,0,0,0,0,0,0,0,0,0,0,0,0,0,0,0,0,0,0,0,0,0,0,0,0,0,0,0,0,0,0,0,0,0,0,0,0,0,0,0,0,0,0,0,0,0.3235,0.3237,0,0.343,0.3432,0.3434,0.3521,0.352,0.352,0.352,0.3721,0.3726,0.3732,0,0,0,0,0,0,0,0,0,0,0,0,0,0.2938,0.2943,0.3235,0.3237,0.324,0.3429,0.3432,0.3435,0.3521,0.352,0.352,0.352,0.3719,0.3726,0.3732,0,0,0,0,0,0,0,0,0,0,0,0,0,0.3093,0.2945,0.3234,0.3305,0.3314,0.3429,0.3432,0.3435,0.3521,0.352,0.352,0.352,0.3717,0.3725,0.3733,0.3793,0,0,0.3759,0.3763,0,0,0,0,0,0,0,0,0.3084,0.3104,0.3293,0.3301,0.331,0.3451,0.3401,0.3555,0.3521,0.3442,0.352,0.3519,0.3631,0.3647,0.3684,0.3802,0.3811,0.376,0.3765,0.3768,0.3771,0,0,0,0,0,0,0,0.3073,0.3096,0.3312,0.3295,0.3306,0.3328,0.3349,0.3431,0.3537,0.3449,0.3456,0.3478,0.3636,0.3676,0.369,0.3814,0.3759,0.3767,0.3772,0.3775,0.399,0.3991,0,0,0,0,0,0,0.3051,0.3087,0.3306,0.3318,0.3194,0.3333,0.3358,0.3406,0.3536,0.3555,0.3478,0.3481,0.3662,0.368,0.3697,0.3776,0.3768,0.3776,0.3781,0.399,0.399,0.3991,0,0,0,0,0,0,0.3044,0.307,0.3298,0.3204,0.3235,0.3339,0.3392,0.341,0.345,0.3558,0.3577,0.3499,0.3662,0.3685,0.3768,0.3784,0.378,0.3788,0.3989,0.399,0.3991,0.3933,0,0,0,0,0,0,0.3035,0.3067,0.309,0.3204,0.324,0.3366,0.3393,0.3414,0.3464,0.347,0.3583,0.3601,0.3664,0.3755,0.3776,0.3795,0.3794,0.3988,0.3989,0.399,0.3934,0.3932,0.393,0,0,0,0,0,0.3024,0.3067,0.3091,0.3117,0.3271,0.3366,0.3387,0.3458,0.3465,0.349,0.3559,0.3597,0.3778,0.3763,0.3788,0.3809,0.3987,0.3989,0.399,0.3935,0.3932,0.393,0,0,0,0,0,0,0.2953,0.3083,0.3112,0.3192,0.3267,0.3381,0.3414,0.3453,0.3528,0.3531,0.3616,0.364,0.3716,0.3771,0.3752,0.3873,0.3886,0.3893,0.3835,0.3834,0.3832,0.3818,0.3801,0,0,0,0,0,0.2946,0.3012,0.3123,0.3183,0.3219,0.331,0.3354,0.3402,0.3484,0.3516,0.3592,0.367,0.3744,0.3792,0.3866,0.3941,0.3968,0.3968,0.3966,0.3964,0.3969,0.4013,0.4015,0.3996,0.3996,0.3996,0,0,0.2934,0.3013,0.305,0.317,0.3235,0.3301,0.3336,0.3406,0.3456,0.3527,0.361,0.3668,0.3761,0.384,0.3879,0.3888,0.398,0.3966,0.3963,0.397,0.4015,0.4016,0.4018,0.3997,0.3997,0.3997,0,0,0.2946,0.3012,0.3069,0.3132,0.3229,0.3289,0.3302,0.341,0.3451,0.3535,0.3589,0.365,0.3777,0.3841,0.389,0.3924,0.3963,0.3946,0.3936,0.3978,0.3979,0.3981,0.3994,0.3997,0.395,0.395,0.395,0,0.2918,0.3021,0.3094,0.316,0.3212,0.3278,0.3337,0.3394,0.351,0.3544,0.3552,0.3712,0.3779,0.3875,0.3883,0.392,0.3938,0.3934,0.3973,0.3975,0.3978,0.3991,0.3996,0.3947,0.3948,0.3948,0.3948,0,0.2983,0.3053,0.3088,0.3197,0.3252,0.3314,0.3397,0.3444,0.3486,0.3545,0.363,0.3712,0.3805,0.383,0.3873,0.3932,0.3934,0.3956,0.3971,0.3976,0.399,0.3995,0.3944,0.3944,0.3945,0.3946,0,0,0.2957,0.3104,0.3116,0.3167,0.3277,0.3333,0.3397,0.3487,0.3526,0.3603,0.366,0.3764,0.3785,0.3841,0.3891,0.3927,0.3949,0.3945,0.3949,0.3944,0.4019,0.4003,0.4007,0.3974,0.3975,0.3976,0.4012,0,0.2984,0.3103,0.317,0.3262,0.3328,0.339,0.3447,0.352,0.3576,0.364,0.3703,0.3776,0.3797,0.3831,0.387,0.3938,0.3965,0.3936,0.4029,0.4031,0.4005,0.4014,0.3998,0.4027,0.4017,0.4018,0.4019,0,0.3033,0.3108,0.3206,0.3308,0.3338,0.3388,0.3475,0.3535,0.362,0.3658,0.3719,0.3768,0.3839,0.3846,0.3945,0.3924,0.3965,0.4004,0.4007,0.402,0.4026,0.4028,0.4038,0.4043,0.4028,0.4027,0.4027,0,0.3005,0.3131,0.3206,0.3246,0.3367,0.3401,0.3453,0.3537,0.3586,0.3662,0.3695,0.3778,0.3824,0.3887,0.3957,0.3956,0.4049,0.4063,0.4084,0.4082,0.4102,0.41,0.412,0.4126,0.4126,0.4126,0.4126,0,0.303,0.3087,0.3195,0.3241,0.3307,0.3383,0.3446,0.3503,0.3577,0.3635,0.3694,0.3747,0.3836,0.3901,0.3956,0.403,0.405,0.4083,0.4098,0.4079,0.4075,0.4109,0.4109,0.4127,0.4127,0.4127,0.4127,0,0.3011,0.3085,0.3171,0.3278,0.3306,0.335,0.3442,0.3489,0.3547,0.362,0.3641,0.3733,0.3812,0.3888,0.3993,0.4031,0.4104,0.4123,0.4076,0.4084,0.4101,0.4099,0.4144,0.4154,0.4152,0.4152,0.4152,0,0.3023,0.3068,0.318,0.3223,0.3273,0.3342,0.3392,0.3468,0.3518,0.3617,0.3652,0.3735,0.3805,0.3928,0.4005,0.4086,0.4107,0.4117,0.412,0.4099,0.4109,0.4105,0.4111,0.4116,0.4115,0.4115,0.4115,0,0.3036,0.307,0.314,0.3222,0.3281,0.335,0.342,0.3452,0.3542,0.3595,0.3676,0.373,0.3837,0.3919,0.4009,0.4063,0.4104,0.4113,0.4123,0.4105,0.4076,0.4093,0.4072,0.4112,0.4112,0.4113,0.4113,0.4113,0.3034,0.3077,0.3162,0.3238,0.3299,0.3363,0.3413,0.3477,0.3545,0.3638,0.3679,0.376,0.3843,0.3968,0.4021,0.4086,0.4096,0.4109,0.4113,0.4115,0.4112,0.4064,0.4102,0.4102,0.4103,0.4103,0.4103,0,0.305,0.3108,0.3177,0.3274,0.3333,0.3365,0.3445,0.3493,0.3564,0.3638,0.3705,0.3798,0.3877,0.3959,0.4043,0.4079,0.41,0.4099,0.4098,0.4109,0.4098,0.4082,0.408,0.408,0.408,0.408,0.408,0.408,0.3066,0.3142,0.3185,0.3291,0.3348,0.3429,0.3471,0.3531,0.359,0.3691,0.3757,0.3809,0.3886,0.3976,0.405,0.4072,0.41,0.4094,0.4121,0.4109,0.411,0.4111,0.4097,0.4099,0.4099,0.4128,0.4128,0.4128]},{"header":{"parameterUnit":"m.s-1","parameterCategory":1,"la1":30.2991,"la2":30.254,"lo1":-89.0895,"lo2":-89.0444,"dy":0.0017,"dx":0.0017,"nx":28,"ny":28,"refTime":"2025-06-18T09:00:00:Z","depth":0,"parameterNumber":3,"parameterNumberName":"V-component_of_WINDS"},"data":[0,0,0,0,0,0,0,0,0,0,0,0,0,0,0,0,0,0,0,0,0,0,0,0,0,0,0,0,0,0,0,0,0,0,0,0,0,0,0,0,0,0,0,0,0,0,0,0,0,0,0,0,0,0,0,0,0,0,4.414,4.4139,0,4.4052,4.4051,4.405,4.3989,4.3989,4.3988,4.3988,4.3891,4.3889,4.3887,0,0,0,0,0,0,0,0,0,0,0,0,0,4.4252,4.425,4.414,4.4139,4.4138,4.4052,4.4051,4.4049,4.3989,4.3989,4.3988,4.3988,4.3892,4.3889,4.3887,0,0,0,0,0,0,0,0,0,0,0,0,0,4.4187,4.425,4.4141,4.4098,4.4093,4.4052,4.4051,4.4049,4.3989,4.3989,4.3988,4.3988,4.3893,4.389,4.3886,4.3879,0,0,4.3876,4.3875,0,0,0,0,0,0,0,0,4.4191,4.4183,4.4105,4.4101,4.4095,4.4031,4.4054,4.3992,4.399,4.4029,4.3988,4.3987,4.3938,4.3931,4.3915,4.3874,4.387,4.3876,4.3874,4.3873,4.3872,0,0,0,0,0,0,0,4.4196,4.4187,4.4105,4.4104,4.4098,4.4081,4.4072,4.4042,4.3988,4.4025,4.4021,4.4011,4.3935,4.3919,4.3913,4.3869,4.3876,4.3873,4.3871,4.387,4.3817,4.3818,0,0,0,0,0,0,4.4208,4.4191,4.4108,4.4102,4.4143,4.408,4.4069,4.4052,4.3988,4.3978,4.4012,4.4009,4.3925,4.3916,4.3909,4.3896,4.3873,4.387,4.3868,4.3817,4.3817,4.3818,0,0,0,0,0,0,4.421,4.4201,4.4111,4.4145,4.4133,4.4079,4.406,4.4051,4.4035,4.3978,4.3967,4.4006,4.3924,4.3914,4.3887,4.3892,4.3868,4.3865,4.3816,4.3817,4.3818,4.3871,0,0,0,0,0,0,4.4214,4.4202,4.42,4.4146,4.4131,4.4093,4.4061,4.405,4.403,4.4025,4.3969,4.3959,4.3922,4.3893,4.3884,4.3887,4.3862,4.3815,4.3816,4.3817,4.3869,4.3874,4.3878,0,0,0,0,0,4.4218,4.4217,4.42,4.419,4.4128,4.4093,4.4085,4.4044,4.4031,4.4027,4.3991,4.3961,4.3893,4.389,4.388,4.3883,4.3815,4.3816,4.3817,4.3867,4.3873,4.3878,0,0,0,0,0,0,4.427,4.4209,4.419,4.4172,4.4139,4.4083,4.4078,4.4052,4.402,4.4017,4.3966,4.3954,4.3933,4.3905,4.3903,4.3872,4.385,4.385,4.3891,4.3897,4.3901,4.3908,4.386,0,0,0,0,0,4.428,4.426,4.4206,4.4195,4.418,4.4132,4.4115,4.4087,4.405,4.4035,4.3997,4.396,4.3931,4.3912,4.3881,4.3865,4.3851,4.3861,4.3866,4.387,4.387,4.3859,4.3863,4.3822,4.3822,4.3822,0,0,4.4299,4.4263,4.4253,4.4205,4.4176,4.4154,4.412,4.4098,4.4081,4.4031,4.4005,4.3976,4.3931,4.391,4.3898,4.3886,4.3878,4.3872,4.3875,4.3873,4.3861,4.3865,4.3868,4.3823,4.3823,4.3823,0,0,4.4324,4.4295,4.4283,4.4255,4.4213,4.4181,4.4179,4.4128,4.4107,4.4081,4.4043,4.402,4.3971,4.3941,4.3919,4.3934,4.3906,4.3925,4.395,4.394,4.3943,4.3946,4.3951,4.3954,4.3926,4.3926,4.3926,0,4.4352,4.432,4.4279,4.4261,4.424,4.4197,4.4184,4.4158,4.4107,4.4093,4.408,4.4018,4.3985,4.3956,4.396,4.3944,4.3939,4.3931,4.3946,4.3949,4.395,4.3955,4.3957,4.3928,4.3928,4.3928,4.3928,0,4.4358,4.4336,4.4331,4.4286,4.4265,4.4249,4.4205,4.4188,4.4162,4.4132,4.4105,4.4064,4.4025,4.4016,4.3989,4.3984,4.3978,4.3956,4.3933,4.3958,4.3961,4.3963,4.3932,4.3931,4.393,4.393,0,0,4.4411,4.4346,4.4345,4.4324,4.4275,4.4256,4.4238,4.4202,4.4189,4.4155,4.4138,4.4098,4.4079,4.4054,4.4024,4.4015,4.403,4.3995,4.3993,4.4003,4.4022,4.4039,4.4042,4.4011,4.4011,4.4012,4.4026,0,4.4428,4.4396,4.436,4.4339,4.4318,4.4277,4.4261,4.4228,4.4199,4.4176,4.4143,4.4116,4.4092,4.4077,4.4067,4.4031,4.4033,4.4029,4.3994,4.3993,4.4007,4.4043,4.406,4.4076,4.4027,4.4027,4.4027,0,4.4444,4.4415,4.4394,4.4348,4.4337,4.4324,4.4289,4.4268,4.4229,4.4209,4.4183,4.4151,4.4128,4.4109,4.4076,4.4075,4.4058,4.4038,4.4038,4.4033,4.4012,4.4039,4.408,4.4082,4.4029,4.4029,4.4029,0,4.4486,4.4442,4.4423,4.4407,4.4352,4.4344,4.4321,4.4282,4.4263,4.4232,4.4219,4.4184,4.4165,4.4139,4.4098,4.4087,4.407,4.4047,4.4052,4.4053,4.405,4.4051,4.4088,4.4039,4.4039,4.4039,4.4039,0,4.4509,4.4497,4.4442,4.4431,4.4416,4.4374,4.436,4.4332,4.4299,4.428,4.4241,4.4224,4.4172,4.4148,4.4116,4.4094,4.4086,4.4068,4.4059,4.4071,4.4074,4.406,4.4057,4.404,4.4039,4.4039,4.4039,0,4.4553,4.4516,4.4493,4.4444,4.4432,4.4424,4.4381,4.4367,4.4337,4.4314,4.4306,4.4258,4.4228,4.4185,4.4142,4.412,4.4103,4.4089,4.4117,4.4112,4.412,4.412,4.415,4.4152,4.4102,4.4102,4.4103,0,4.457,4.4561,4.4512,4.4498,4.4477,4.4455,4.4436,4.4394,4.4376,4.4332,4.4324,4.4292,4.4264,4.4219,4.4178,4.4145,4.413,4.4143,4.4125,4.4138,4.4131,4.4132,4.4131,4.4147,4.4148,4.4149,4.4149,0,4.4605,4.4587,4.4563,4.4533,4.4513,4.4487,4.4458,4.4448,4.4399,4.4381,4.4352,4.433,4.4288,4.4256,4.4218,4.4191,4.4162,4.4156,4.4155,4.4167,4.4184,4.4176,4.4129,4.4155,4.4154,4.4154,4.4154,4.4153,4.4636,4.4626,4.4591,4.4566,4.4541,4.4515,4.4501,4.447,4.4446,4.4409,4.4385,4.4357,4.4319,4.4265,4.424,4.4217,4.4204,4.4203,4.4203,4.4204,4.4208,4.4188,4.4209,4.4209,4.4209,4.4209,4.4209,0,4.4669,4.4645,4.4623,4.4585,4.4565,4.4542,4.451,4.4494,4.4471,4.4439,4.4413,4.438,4.4349,4.4308,4.4274,4.4263,4.4249,4.4256,4.4256,4.425,4.4221,4.4225,4.4268,4.4268,4.4268,4.4268,4.4268,4.4268,4.4684,4.4667,4.4645,4.4615,4.459,4.4564,4.4548,4.4524,4.4499,4.4464,4.444,4.4413,4.4377,4.4341,4.4311,4.43,4.4289,4.43,4.4284,4.4258,4.4252,4.4247,4.4251,4.4298,4.4298,4.4316,4.4316,4.4316]}]]